SCP
0 0 0 0 0 0 0 0 0 0 0 0 0 0 0 0 0 0 0 0 0 0 0 0 0 0 0 0 0 0 0 0 0 0 0 0 0 0
0 0 0 0 0 0 0 0 0 0 0 0 0 0 0 0 0 0 0 0 0 0 0 0 0 0 0 0 0 0 0 0 0 0 0 0 0 0
0 0 0 0 0 0 0 0 0 0 0 0 0 0 0 0 0 0 0 0 0 0 0 0 0 0 0 0 0 0 0 0 0 0 0 0 0 0
0 0 0 0 0 0 0 0 0 0 0 0 0 0 0 0 0 0 0 0 0 0 0 0 0 0 0 0 0 0 0 0 0 0 0 0 0 0
0 0 0 0 0 -0 -0 0 0 0 0 0 0 0 0 0 0 0 0 0 0 0 0 0 0 0 0 0 0 0 0 0 0 0 0 0 0 0
0 0 0 0 -0 0 0 -0 -0 0 0 0 0 0 0 0 0 0 0 0 0 0 0 0 0 0 0 0 0 0 0 0 0 0 0 0 0 0
0 0 0 0 -0 0 -0 -0 -0 -0 0 0 0 0 0 0 0 0 0 0 0 0 0 0 0 0 0 0 0 0 0 0 0 0 0 0 0 0
-0 0 -0 -0 0 0 0 0 -0 0 0 0 0 0 0 0 0 0 0 0 0 0 0 0 0 -0 0 0 0 0 0 0 0 0 0 0 0 0
-0 -0 -0 -0 -0 0 0 -0 0 0 0 0 0 0 0 0 0 0 0 0 0 0 0 0 0 0 0 0 0 0 0 0 0 0 0 0 0 0
-0 -0 -0 -0 -0 -0 -0 -0 0 0 0 0 0 0 0 0 0 0 0 0 0 0 0 0 0 0 0 0 0 0 0 0 0 0 0 0 0 0
0 0 -0 -0 -0 -0 -0 -0 0 0 0 -0 0 0 0 0 0 0 0 0 0 0 0 0 0 0 0 0 0 0 0 0 0 0 0 0 0 0
0 0 0 0 -0 -0 -0 -0 0 0 0 0 0 0 0 0 0 0 0 0 0 0 0 0 0 0 0 0 0 0 0 0 0 0 0 0 0 0
0 0 0 0 0 0 0 0 0 0 0 0 0 0 0 0 0 0 0 0 0 0 0 0 0 0 0 0 0 0 0 0 0 0 0 0 0 0
0 0 0 0 0 0 0 0 0 0 0 0 0 0 0 0 0 0 0 0 0 0 0 0 0 0 0 0 0 0 0 0 0 0 0 0 0 0
0 0 0 0 0 0 0 0 0 0 0 0 0 0 0 0 0 0 0 0 0 0 0 0 0 0 0 0 0 0 0 0 0 0 0 0 0 0
0 0 0 0 0 0 0 0 0 0 0 0 0 0 0 0 -0 -0 0 0 0 0 0 0 0 0 0 0 0 0 0 0 0 0 0 0 0 0
0 0 0 0 0 0 0 0 0 0 0 0 0 0 0 0 0 0 0 0 0 0 0 0 0 0 0 0 0 0 0 0 0 0 0 0 0 0
0 0 0 0 0 0 0 0 0 0 0 0 0 0 0 0 0 0 0 0 0 0 0 0 0 0 0 0 0 0 0 0 0 0 0 0 0 0
0 0 0 0 0 0 0 0 0 0 0 0 0 0 0 0 0 0 0 0 0 0 0 0 0 0 0 0 0 0 0 0 0 0 0 0 0 0
0 0 0 0 0 0 0 0 0 0 0 0 0 0 0 0 0 0 0 0 0 0 0 0 0 0 0 0 0 0 0 0 0 0 0 0 0 0
0 0 0 0 0 0 0 0 0 0 0 0 0 0 0 0 0 0 0 0 0 0 0 0 0 0 0 0 0 0 0 0 0 0 0 0 0 0
0 0 0 0 0 0 0 0 0 0 0 0 0 0 0 0 0 0 0 0 0 0 0 0 0 0 0 0 0 0 0 0 0 -0 -0 0 0 0
0 0 0 0 0 0 0 0 0 0 0 0 0 0 0 0 0 0 0 0 0 0 0 0 0 0 0 0 0 0 0 0 0 0 0 0 0 -0
Wind_Speed_500mb
54 56 60 67 69 72 83 81 73 65 66 56 65 72 70 70 70 63 61 68 65 63 63 66 68 61 60 64 65 69 70 67 65 62 60 61 62 62
52 55 58 61 65 71 75 81 77 78 68 60 55 60 55 56 64 64 67 66 61 63 69 71 77 79 71 65 70 69 71 76 74 70 65 64 65 65
50 56 61 61 66 66 69 71 76 72 66 74 62 62 57 57 57 57 56 58 62 67 67 71 74 74 79 71 69 72 73 75 73 72 67 67 69 67
54 58 61 57 58 61 68 67 67 69 64 72 62 66 61 56 55 57 60 58 61 62 56 56 56 62 66 71 74 72 66 71 73 71 67 67 71 72
44 49 55 55 58 56 57 61 60 67 63 66 63 65 56 53 53 52 53 57 63 68 67 65 62 66 70 70 72 72 74 80 79 83 77 71 71 74
45 47 47 43 46 49 53 52 52 59 55 59 64 62 56 57 55 56 59 60 63 60 60 59 60 62 63 63 62 62 66 66 69 77 73 76 72 76
41 38 34 34 41 43 44 48 41 41 44 51 58 53 54 51 60 58 58 56 57 51 51 53 51 55 57 61 64 60 61 63 61 60 64 67 69 69
40 36 32 28 29 32 33 34 32 35 34 39 46 47 47 43 50 46 42 44 50 49 52 54 50 52 43 44 44 51 56 59 59 59 60 61 62 66
45 38 36 32 30 33 32 33 34 37 41 40 41 42 42 41 39 45 48 49 54 45 47 52 46 52 50 45 46 41 43 50 52 58 59 59 60 62
45 44 38 36 34 35 33 34 36 40 42 43 46 45 46 47 47 50 52 53 52 48 49 55 50 54 58 58 59 55 46 47 54 59 63 63 66 69
19 31 36 37 39 35 30 31 32 36 39 41 40 41 45 45 45 52 57 59 58 61 60 60 64 66 59 65 66 59 55 52 52 52 57 60 62 65
17 18 24 29 37 37 37 34 33 36 35 38 41 44 45 48 49 51 56 57 59 55 47 44 45 57 53 53 54 57 56 54 54 55 56 58 58 58
15 18 21 23 22 19 19 23 32 39 42 42 37 34 33 35 38 36 37 41 44 48 40 36 34 37 40 23 25 32 35 35 34 38 43 49 52 55
17 17 19 26 28 21 16 17 17 20 24 26 25 23 22 23 25 25 22 23 29 30 32 31 29 29 31 35 33 40 45 45 46 49 51 53 55 59
14 18 18 18 14 14 16 14 12 9 10 12 12 11 12 13 18 20 24 23 21 23 25 25 28 31 31 36 39 49 48 41 42 43 40 43 44 46
12 13 14 13 12 11 9 6 5 6 6 7 9 12 16 16 16 13 12 12 13 14 17 21 23 26 29 31 37 41 39 34 33 39 41 40 41 44
14 14 13 13 11 8 7 7 7 6 5 6 6 6 6 7 9 10 11 10 11 14 16 19 23 25 28 31 35 33 36 37 33 33 38 45 42 44
16 18 19 13 9 7 5 4 4 4 4 5 5 6 8 7 7 7 9 11 11 12 13 15 18 20 23 19 20 20 23 33 30 31 38 47 47 37
19 20 19 16 14 10 8 8 8 9 9 8 7 7 9 9 10 9 11 12 11 13 16 21 20 23 26 22 22 17 17 27 33 35 36 39 48 44
20 20 17 15 11 8 6 6 8 10 11 11 12 11 10 8 8 10 11 13 14 17 20 19 17 20 27 30 31 38 30 27 29 35 36 39 42 43
22 21 18 16 12 10 8 8 8 9 11 13 16 16 15 13 11 11 13 14 16 19 20 21 21 16 26 33 40 38 29 21 27 29 27 37 43 45
22 21 19 17 13 11 10 9 10 12 14 14 15 17 18 17 17 15 13 15 16 19 21 20 17 18 25 31 38 39 29 13 16 19 23 27 29 25
25 22 20 18 15 13 11 9 10 12 14 14 14 13 14 15 15 15 17 18 16 16 18 20 17 20 26 29 29 23 21 15 15 12 9 20 23 26
Wind_Direction_500mb
272 271 270 267 264 260 257 256 254 255 250 253 248 244 247 250 254 254 250 243 243 243 246 254 260 259 256 262 259 252 248 248 252 252 251 252 250 248
282 278 276 274 268 262 257 256 252 251 259 253 253 255 252 251 252 254 254 255 251 244 245 242 246 251 258 258 257 257 254 248 249 253 251 254 252 250
282 283 282 280 271 268 262 258 255 251 247 257 256 256 255 255 253 253 255 256 252 249 248 246 248 251 252 252 252 252 252 251 247 249 250 257 253 250
283 283 279 278 274 274 264 261 258 255 250 251 250 258 256 256 257 256 252 249 255 253 243 247 248 244 246 252 251 253 250 251 252 254 250 254 252 253
285 288 288 282 275 269 259 256 262 252 247 248 247 256 256 254 255 253 251 252 255 254 252 247 249 253 258 260 257 256 255 254 259 259 255 254 252 249
289 294 295 291 272 261 261 258 257 258 251 243 247 253 256 257 256 256 255 256 258 259 260 258 256 258 262 258 259 255 253 257 258 252 252 256 258 251
287 285 287 288 272 265 263 260 258 254 250 246 250 252 254 254 257 256 256 264 268 263 262 256 263 272 265 263 257 255 253 254 255 250 248 252 254 254
284 284 277 277 275 269 261 257 252 255 251 252 254 255 258 258 257 258 261 259 263 268 265 257 264 284 279 264 256 247 244 245 244 243 246 250 253 251
279 283 280 279 276 270 265 262 257 254 252 256 255 255 256 257 259 257 259 257 260 264 264 270 262 261 273 273 264 259 252 245 246 243 245 250 253 252
274 273 278 275 275 277 274 260 252 250 249 250 256 260 258 259 259 256 258 260 260 261 261 266 264 258 259 270 265 273 270 265 256 246 245 250 250 247
278 272 273 275 272 275 276 274 265 261 256 253 257 262 266 266 266 269 263 263 268 266 264 263 264 267 265 275 276 274 269 268 263 258 255 256 258 256
313 302 297 292 285 277 269 262 268 264 262 270 269 266 264 266 264 262 262 259 263 260 251 244 247 263 265 266 256 258 260 256 252 250 252 253 255 256
337 325 327 327 316 309 286 255 255 257 256 258 259 258 253 255 257 256 251 258 252 253 249 244 239 239 243 244 241 241 244 246 249 256 260 261 262 264
345 344 339 335 335 334 317 295 281 266 251 255 251 252 255 259 260 268 268 261 257 253 252 255 255 251 253 258 266 272 273 271 270 270 270 270 270 270
327 332 343 340 337 334 327 326 319 279 258 244 237 243 252 260 269 271 278 276 265 264 270 274 272 266 265 267 269 266 273 274 273 272 272 272 273 270
335 338 343 348 353 353 349 338 322 294 273 280 289 288 294 292 284 277 272 273 262 261 260 262 264 263 265 269 272 279 286 286 274 283 280 275 273 277
317 321 325 323 319 328 345 357 358 359 348 334 325 316 313 315 301 289 271 275 262 257 260 274 282 286 287 289 287 289 288 287 293 294 285 280 277 279
313 313 312 310 317 327 332 352 35 40 15 359 354 329 323 325 320 319 320 327 328 323 310 297 289 288 289 297 296 305 293 291 288 284 290 294 286 290
310 308 307 314 323 339 358 11 4 5 13 12 12 2 350 342 336 327 326 331 337 331 328 326 324 325 322 319 318 312 303 293 293 292 298 303 298 307
305 300 300 302 308 308 320 339 349 349 346 344 342 337 325 318 326 333 334 331 327 325 331 333 328 314 313 313 302 300 305 298 296 298 304 300 300 308
300 301 298 294 287 275 282 297 311 317 321 325 326 328 331 329 324 322 321 328 323 320 324 327 324 296 298 297 296 303 309 295 285 291 302 304 314 318
289 292 289 283 271 262 264 284 307 322 328 329 328 327 328 332 330 325 319 316 314 315 314 319 327 307 298 289 289 296 308 298 286 299 298 299 304 296
281 282 279 275 266 250 253 273 302 319 330 337 344 342 327 329 326 318 316 313 308 308 313 315 320 315 303 300 292 300 313 315 312 294 285 307 307 304
Wind_Speed_850mb
54 56 60 67 69 72 83 81 73 65 66 56 65 72 70 70 70 63 61 68 65 63 63 66 68 61 60 64 65 69 70 67 65 62 60 61 62 62
52 55 58 61 65 71 75 81 77 78 68 60 55 60 55 56 64 64 67 66 61 63 69 71 77 79 71 65 70 69 71 76 74 70 65 64 65 65
50 56 61 61 66 66 69 71 76 72 66 74 62 62 57 57 57 57 56 58 62 67 67 71 74 74 79 71 69 72 73 75 73 72 67 67 69 67
54 58 61 57 58 61 68 67 67 69 64 72 62 66 61 56 55 57 60 58 61 62 56 56 56 62 66 71 74 72 66 71 73 71 67 67 71 72
44 49 55 55 58 56 57 61 60 67 63 66 63 65 56 53 53 52 53 57 63 68 67 65 62 66 70 70 72 72 74 80 79 83 77 71 71 74
45 47 47 43 46 49 53 52 52 59 55 59 64 62 56 57 55 56 59 60 63 60 60 59 60 62 63 63 62 62 66 66 69 77 73 76 72 76
41 38 34 34 41 43 44 48 41 41 44 51 58 53 54 51 60 58 58 56 57 51 51 53 51 55 57 61 64 60 61 63 61 60 64 67 69 69
40 36 32 28 29 32 33 34 32 35 34 39 46 47 47 43 50 46 42 44 50 49 52 54 50 52 43 44 44 51 56 59 59 59 60 61 62 66
45 38 36 32 30 33 32 33 34 37 41 40 41 42 42 41 39 45 48 49 54 45 47 52 46 52 50 45 46 41 43 50 52 58 59 59 60 62
45 44 38 36 34 35 33 34 36 40 42 43 46 45 46 47 47 50 52 53 52 48 49 55 50 54 58 58 59 55 46 47 54 59 63 63 66 69
19 31 36 37 39 35 30 31 32 36 39 41 40 41 45 45 45 52 57 59 58 61 60 60 64 66 59 65 66 59 55 52 52 52 57 60 62 65
17 18 24 29 37 37 37 34 33 36 35 38 41 44 45 48 49 51 56 57 59 55 47 44 45 57 53 53 54 57 56 54 54 55 56 58 58 58
15 18 21 23 22 19 19 23 32 39 42 42 37 34 33 35 38 36 37 41 44 48 40 36 34 37 40 23 25 32 35 35 34 38 43 49 52 55
17 17 19 26 28 21 16 17 17 20 24 26 25 23 22 23 25 25 22 23 29 30 32 31 29 29 31 35 33 40 45 45 46 49 51 53 55 59
14 18 18 18 14 14 16 14 12 9 10 12 12 11 12 13 18 20 24 23 21 23 25 25 28 31 31 36 39 49 48 41 42 43 40 43 44 46
12 13 14 13 12 11 9 6 5 6 6 7 9 12 16 16 16 13 12 12 13 14 17 21 23 26 29 31 37 41 39 34 33 39 41 40 41 44
14 14 13 13 11 8 7 7 7 6 5 6 6 6 6 7 9 10 11 10 11 14 16 19 23 25 28 31 35 33 36 37 33 33 38 45 42 44
16 18 19 13 9 7 5 4 4 4 4 5 5 6 8 7 7 7 9 11 11 12 13 15 18 20 23 19 20 20 23 33 30 31 38 47 47 37
19 20 19 16 14 10 8 8 8 9 9 8 7 7 9 9 10 9 11 12 11 13 16 21 20 23 26 22 22 17 17 27 33 35 36 39 48 44
20 20 17 15 11 8 6 6 8 10 11 11 12 11 10 8 8 10 11 13 14 17 20 19 17 20 27 30 31 38 30 27 29 35 36 39 42 43
22 21 18 16 12 10 8 8 8 9 11 13 16 16 15 13 11 11 13 14 16 19 20 21 21 16 26 33 40 38 29 21 27 29 27 37 43 45
22 21 19 17 13 11 10 9 10 12 14 14 15 17 18 17 17 15 13 15 16 19 21 20 17 18 25 31 38 39 29 13 16 19 23 27 29 25
25 22 20 18 15 13 11 9 10 12 14 14 14 13 14 15 15 15 17 18 16 16 18 20 17 20 26 29 29 23 21 15 15 12 9 20 23 26
Wind_Direction_850mb
272 271 270 267 264 260 257 256 254 255 250 253 248 244 247 250 254 254 250 243 243 243 246 254 260 259 256 262 259 252 248 248 252 252 251 252 250 248
282 278 276 274 268 262 257 256 252 251 259 253 253 255 252 251 252 254 254 255 251 244 245 242 246 251 258 258 257 257 254 248 249 253 251 254 252 250
282 283 282 280 271 268 262 258 255 251 247 257 256 256 255 255 253 253 255 256 252 249 248 246 248 251 252 252 252 252 252 251 247 249 250 257 253 250
283 283 279 278 274 274 264 261 258 255 250 251 250 258 256 256 257 256 252 249 255 253 243 247 248 244 246 252 251 253 250 251 252 254 250 254 252 253
285 288 288 282 275 269 259 256 262 252 247 248 247 256 256 254 255 253 251 252 255 254 252 247 249 253 258 260 257 256 255 254 259 259 255 254 252 249
289 294 295 291 272 261 261 258 257 258 251 243 247 253 256 257 256 256 255 256 258 259 260 258 256 258 262 258 259 255 253 257 258 252 252 256 258 251
287 285 287 288 272 265 263 260 258 254 250 246 250 252 254 254 257 256 256 264 268 263 262 256 263 272 265 263 257 255 253 254 255 250 248 252 254 254
284 284 277 277 275 269 261 257 252 255 251 252 254 255 258 258 257 258 261 259 263 268 265 257 264 284 279 264 256 247 244 245 244 243 246 250 253 251
279 283 280 279 276 270 265 262 257 254 252 256 255 255 256 257 259 257 259 257 260 264 264 270 262 261 273 273 264 259 252 245 246 243 245 250 253 252
274 273 278 275 275 277 274 260 252 250 249 250 256 260 258 259 259 256 258 260 260 261 261 266 264 258 259 270 265 273 270 265 256 246 245 250 250 247
278 272 273 275 272 275 276 274 265 261 256 253 257 262 266 266 266 269 263 263 268 266 264 263 264 267 265 275 276 274 269 268 263 258 255 256 258 256
313 302 297 292 285 277 269 262 268 264 262 270 269 266 264 266 264 262 262 259 263 260 251 244 247 263 265 266 256 258 260 256 252 250 252 253 255 256
337 325 327 327 316 309 286 255 255 257 256 258 259 258 253 255 257 256 251 258 252 253 249 244 239 239 243 244 241 241 244 246 249 256 260 261 262 264
345 344 339 335 335 334 317 295 281 266 251 255 251 252 255 259 260 268 268 261 257 253 252 255 255 251 253 258 266 272 273 271 270 270 270 270 270 270
327 332 343 340 337 334 327 326 319 279 258 244 237 243 252 260 269 271 278 276 265 264 270 274 272 266 265 267 269 266 273 274 273 272 272 272 273 270
335 338 343 348 353 353 349 338 322 294 273 280 289 288 294 292 284 277 272 273 262 261 260 262 264 263 265 269 272 279 286 286 274 283 280 275 273 277
317 321 325 323 319 328 345 357 358 359 348 334 325 316 313 315 301 289 271 275 262 257 260 274 282 286 287 289 287 289 288 287 293 294 285 280 277 279
313 313 312 310 317 327 332 352 35 40 15 359 354 329 323 325 320 319 320 327 328 323 310 297 289 288 289 297 296 305 293 291 288 284 290 294 286 290
310 308 307 314 323 339 358 11 4 5 13 12 12 2 350 342 336 327 326 331 337 331 328 326 324 325 322 319 318 312 303 293 293 292 298 303 298 307
305 300 300 302 308 308 320 339 349 349 346 344 342 337 325 318 326 333 334 331 327 325 331 333 328 314 313 313 302 300 305 298 296 298 304 300 300 308
300 301 298 294 287 275 282 297 311 317 321 325 326 328 331 329 324 322 321 328 323 320 324 327 324 296 298 297 296 303 309 295 285 291 302 304 314 318
289 292 289 283 271 262 264 284 307 322 328 329 328 327 328 332 330 325 319 316 314 315 314 319 327 307 298 289 289 296 308 298 286 299 298 299 304 296
281 282 279 275 266 250 253 273 302 319 330 337 344 342 327 329 326 318 316 313 308 308 313 315 320 315 303 300 292 300 313 315 312 294 285 307 307 304